SCP
0 0 0 0 0 0 0 0 0 0 0 0 0 0 0 0 0 0 0 0 0 0 0 0 0 0 0 0 0 0 0 0 0 0 0 0 0 0 0 0 0 0 0 0 0 0 0 0 0 0 0 0 0 0
0 0 0 0 0 0 0 0 0 0 0 0 0 0 0 0 0 0 0 0 0 0 0 0 0 0 0 0 0 0 0 0 0 0 0 0 0 0 0 0 0 0 0 0 0 0 0 0 0 0 0 0 0 0
0 0 0 0 0 0 0 0 0 0 0 0 0 0 0 0 0 0 0 0 0 0 0 0 0 0 0 0 0 0 0 0 0 0 0 0 0 0 0 0 0 0 0 0 0 0 0 0 0 0 0 0 0 0
0 0 0 0 0 0 0 0 0 0 0 0 0 0 0 0 0 0 0 0 0 0 0 0 0 0 0 0 0 0 0 0 0 0 0 0 0 0 0 0 0 0 0 0 0 0 0 0 0 0 0 0 0 0
0 0 0 0 0 0 0 0 0 0 0 0 0 0 0 0 0 0 0 0 0 0 0 0 0 0 0 0 0 0 0 0 0 0 0 0 0 0 0 0 0 0 0 0 0 0 0 0 0 0 0 0 0 0
0 0 0 0 0 0 0 0 0 0 0 0 0 0 0 0 0 0 0 0 0 0 0 0 0 0 0 0 0 0 0 0 0 0 0 0 0 0 0 0 0 0 0 0 0 0 0 0 0 0 0 0 0 0
0 0 0 0 0 0 0 0 0 0 0 0 0 0 0 0 0 0 0 0 0 0 0 0 0 0 0 0 0 0 0 0 0 0 0 0 0 0 0 0 0 0 0 0 0 0 0 0 0 0 0 0 0 0
0 0 0 0 0 0 0 0 0 0 0 0 0 0 0 0 0 0 0 0 0 0 0 0 0 0 0 0 0 0 0 0 0 0 0 0 0 0 0 0 0 0 0 0 0 0 0 0 0 0 0 0 0 0
0 0 0 0 0 0 0 0 0 0 0 0 0 0 0 0 0 0 0 0 0 0 0 0 0 0 0 0 0 0 0 0 0 0 0 0 0 0 0 0 0 0 0 0 0 0 0 0 0 0 0 0 0 0
0 0 0 0 0 0 0 0 0 0 0 0 0 0 0 0 0 0 0 0 0 0 0 0 0 0 0 0 0 0 0 0 0 0 0 0 0 0 0 0 0 0 0 0 0 0 0 0 0 0 0 0 0 0
0 0 0 0 0 0 0 0 0 0 0 0 0 0 0 0 0 0 0 0 0 0 0 0 0 0 0 0 0 0 0 0 0 0 0 0 0 0 0 0 0 0 0 0 0 0 0 0 0 0 0 0 0 0
0 0 0 0 0 0 0 0 0 0 0 0 0 0 0 0 0 0 0 0 0 0 0 0 0 0 0 0 0 0 0 0 0 0 0 0 0 0 0 0 0 0 0 0 0 0 0 0 0 0 0 0 0 0
0 0 0 0 0 0 0 0 0 0 0 0 0 0 0 0 0 0 0 0 0 0 0 0 0 0 0 0 0 0 0 0 0 0 0 0 0 0 0 0 -0 0 0 0 0 0 0 0 0 0 0 0 0 0
0 -0 0 0 0 0 0 0 0 0 0 0 0 0 0 0 0 0 0 0 0 0 0 0 0 0 0 0 0 0 0 0 0 0 -0 0 0 0 0 -0 -0 -0 0 0 0 0 0 0 0 0 0 0 0 0
0 0 0 0 0 0 0 0 0 0 0 0 0 0 0 0 0 0 0 0 0 0 0 0 0 0 0 0 0 0 0 0 0 0 0 0 0 -0 -0 -0 -0 0 0 0 0 0 0 0 0 0 0 0 0 0
0 0 0 0 0 0 0 0 0 0 0 0 0 0 0 0 0 0 0 0 0 0 0 0 0 0 0 0 0 0 0 0 0 0 0 0 0 -0 -0 -0 -0 0 0 0 0 0 0 0 0 0 0 0 0 0
0 0 0 0 0 0 0 0 0 0 0 0 0 0 0 0 0 0 0 0 0 0 0 0 0 0 0 0 0 0 0 0 0 0 0 0 0 -0 -0 -0 0 0 0 0 0 0 0 0 0 0 0 0 0 0
0 0 0 0 0 0 0 0 0 0 0 0 0 0 0 0 0 0 0 0 0 0 0 0 0 0 0 0 0 0 0 0 0 0 0 0 0 0 0 0 0 0 0 0 0 0 0 0 0 0 0 0 0 0
0 0 0 0 0 0 0 0 0 0 0 0 0 0 -0 -0 0 0 -0 0 0 0 0 0 0 0 0 0 0 0 0 0 0 0 0 0 0 0 0 0 0 0 0 0 0 0 0 0 0 0 0 0 0 0
0 0 0 0 0 0 0 0 0 0 0 0 0 0 0 -0 -0 -0 -0 0 0 0 0 0 0 0 0 0 0 0 0 0 0 0 0 0 0 0 0 0 0 0 0 0 0 0 0 0 0 0 0 0 0 0
0 0 0 -0 0 0 0 0 0 0 0 0 -0 0 0 0 0 0 0 0 0 0 0 0 0 0 0 0 0 0 0 0 0 0 0 0 0 0 0 0 0 0 0 0 0 0 0 0 0 0 0 0 0 0
0 0 0 0 0 -0 0 0 0 -0 0 0 0 0 0 0 0 -0 0 0 0 0 0 0 0 0 0 0 0 0 0 0 0 0 0 0 0 0 0 0 0 0 0 0 0 0 0 0 0 0 0 0 0 0
0 0 0 0 0 0 0 0 0 0 0 0 0 0 0 0 0 0 0 0 0 0 0 0 0 0 0 0 0 0 0 0 0 0 0 0 0 0 0 0 0 0 0 0 0 0 0 0 0 0 0 0 0 0
0 0 0 0 0 0 0 0 0 0 0 0 0 0 0 0 0 0 0 0 0 0 0 0 0 0 0 0 0 0 0 0 0 0 0 0 0 0 0 0 0 0 0 0 0 0 0 0 0 0 0 0 0 0
0 0 0 0 0 0 0 0 0 0 0 -0 0 0 0 0 0 0 0 -0 -0 0 0 0 0 0 0 0 0 0 0 0 0 0 0 0 0 0 0 0 0 0 0 0 0 0 0 0 0 0 0 0 0 -0
0 0 0 0 0 0 0 0 0 0 0 0 0 0 0 0 0 0 0 0 0 -0 -0 0 0 0 0 0 0 0 0 0 0 0 0 0 0 0 0 0 0 0 0 0 0 0 0 0 0 0 0 0 0 0
0 0 0 0 0 0 0 0 0 0 0 0 0 0 0 0 0 0 0 0 0 0 0 0 0 0 0 0 0 0 0 0 0 0 0 0 0 0 0 0 0 0 0 0 0 0 0 0 0 0 0 -0 -0 -0
0 0 0 0 0 0 0 0 0 0 0 0 0 0 0 0 0 0 0 0 0 0 0 0 0 0 0 0 0 0 0 0 0 0 0 0 0 0 0 0 0 0 0 0 0 0 0 0 0 0 0 0 -0 0
0 0 0 0 0 0 0 0 0 0 0 0 0 0 0 0 0 0 0 0 0 0 0 0 0 0 0 0 0 0 0 0 0 0 0 0 0 0 0 0 0 0 0 0 0 0 0 0 0 0 0 0 -0 0
0 0 0 0 0 0 0 0 0 0 0 0 0 0 0 0 0 0 0 0 0 0 0 0 0 0 0 0 0 0 0 0 0 0 0 0 0 0 0 0 0 0 0 0 0 0 0 0 0 0 0 -0 0 0
0 0 0 0 0 0 0 0 0 0 0 0 0 0 0 0 0 0 0 0 0 0 0 0 0 0 0 0 0 0 0 0 0 0 0 0 0 0 0 0 0 0 0 -0 -0 -0 0 -0 -0 -0 -0 0 0 0
0 0 0 0 0 0 0 0 0 0 0 0 0 0 0 0 0 0 0 0 0 0 0 0 0 0 0 0 0 0 0 0 0 0 0 0 0 0 0 0 0 0 0 -0 0 -0 0 -0 -0 0 0 0 0 0
0 0 0 0 0 0 0 0 0 0 0 0 0 0 0 0 0 0 0 0 0 0 0 0 0 0 0 0 0 0 0 0 0 0 0 0 0 0 0 -0 -0 0 0 0 -0 0 0 0 0 0 0 0 0 -0
Wind_Speed_500mb
34 34 33 33 33 34 37 40 40 41 36 30 31 31 28 27 22 16 15 14 9 11 16 11 11 12 8 13 13 13 12 12 13 13 10 10 10 8 8 3 8 13 8 9 9 9 14 20 18 9 12 30 34 31
37 37 36 35 35 34 34 35 41 40 37 33 33 27 28 29 26 21 11 18 16 14 12 14 16 24 23 13 9 14 4 3 7 8 5 4 8 6 9 6 8 10 11 4 12 5 10 28 17 19 26 32 32 31
37 38 39 39 37 36 34 33 35 41 38 36 36 31 29 31 30 27 17 18 13 15 27 26 24 24 39 35 25 14 14 7 6 7 3 3 11 5 8 12 9 11 12 9 4 10 23 21 22 26 25 26 26 31
35 34 37 40 41 38 37 35 34 36 38 35 36 33 33 33 33 31 29 17 16 9 11 6 13 10 17 35 42 30 9 11 10 9 14 9 10 8 5 6 13 6 20 15 20 28 24 20 14 18 19 20 27 31
39 39 38 38 39 41 39 38 35 34 38 37 38 33 33 40 36 35 35 35 28 15 8 9 16 18 21 19 28 32 25 16 16 14 14 12 5 8 7 8 17 23 18 14 9 3 9 10 10 13 18 25 27 32
39 38 37 37 34 38 39 39 38 35 37 41 38 38 35 34 38 36 27 43 43 39 10 6 4 9 15 16 25 27 25 19 21 18 16 10 7 10 8 10 12 22 22 24 7 8 10 11 15 15 17 23 26 31
37 36 35 31 32 35 37 39 39 36 35 40 40 40 41 38 40 45 13 15 34 46 10 9 10 8 18 23 20 22 20 16 17 14 16 17 15 16 10 18 10 25 26 23 18 11 14 12 12 12 17 20 24 31
36 35 33 32 32 34 35 40 37 37 35 37 44 35 34 37 34 45 61 21 20 29 16 7 5 12 28 20 20 19 20 18 15 15 7 19 12 18 11 28 21 21 25 25 22 19 16 11 12 13 17 22 29 35
36 36 34 32 30 31 36 38 35 35 31 28 29 29 29 30 30 37 38 58 42 21 12 12 12 9 27 26 15 18 20 12 8 15 17 14 13 13 23 24 30 33 26 22 21 16 13 12 12 14 22 27 29 33
34 34 33 31 32 29 31 33 31 28 24 21 19 14 11 16 34 30 30 37 23 15 15 14 25 10 31 31 26 19 16 12 8 14 15 11 18 36 28 22 26 30 32 24 21 16 14 12 11 18 22 26 29 31
35 35 33 34 34 28 28 36 20 21 19 16 15 17 14 21 35 20 15 13 15 10 20 28 44 14 18 23 16 18 9 11 8 11 11 8 8 32 45 45 33 27 26 26 19 13 10 8 11 14 20 27 28 25
34 32 33 34 34 32 21 19 23 25 18 20 14 9 30 16 9 7 9 11 13 14 23 41 48 35 21 19 16 16 9 9 10 23 9 7 10 15 26 38 44 35 32 26 21 15 11 9 8 12 20 27 24 22
34 31 33 32 32 33 19 27 30 34 26 17 12 9 12 10 8 10 14 9 11 14 26 49 35 27 15 16 10 10 14 12 17 9 7 9 18 34 38 39 38 34 31 26 21 16 13 10 10 15 20 23 26 21
35 32 30 31 33 29 18 29 25 39 26 11 15 13 10 9 11 12 13 6 13 22 46 53 37 15 12 13 7 8 6 10 10 10 11 11 31 44 43 40 40 35 30 25 20 16 13 12 12 16 24 29 25 20
34 33 33 33 33 31 24 26 29 38 13 16 10 11 17 17 14 9 16 10 15 26 50 48 20 6 14 8 10 8 13 12 13 9 9 24 45 50 46 42 36 32 28 24 20 16 14 14 15 18 23 28 26 25
30 31 36 35 35 32 25 22 42 33 12 8 14 9 13 9 19 18 16 22 15 38 48 20 11 9 9 8 17 18 12 12 7 14 17 32 48 50 46 39 32 28 26 21 18 15 14 14 16 19 29 26 22 23
30 33 33 32 35 26 24 26 30 17 14 12 14 26 16 7 8 14 17 17 28 49 13 11 15 16 12 12 16 16 11 7 14 21 24 36 49 47 40 34 30 27 24 20 17 14 13 14 17 21 21 19 21 22
39 34 26 36 35 28 24 36 19 14 15 20 14 22 27 15 9 12 18 24 31 36 20 6 6 14 13 20 26 13 19 22 24 28 33 42 43 40 36 30 25 22 19 18 16 15 17 20 23 24 16 16 20 21
32 25 39 40 41 24 24 16 11 7 14 12 20 13 21 13 17 13 18 14 40 35 7 8 8 11 12 7 22 34 38 37 39 36 38 38 39 37 31 24 20 16 14 15 16 16 16 18 17 14 13 14 19 22
33 30 36 33 42 16 10 10 15 10 8 11 16 19 12 15 19 10 13 25 38 17 9 6 9 5 6 12 28 38 37 41 48 46 42 38 34 31 26 21 16 12 11 12 14 11 10 11 12 11 10 16 18 23
32 28 31 32 35 16 11 12 15 13 8 12 21 26 17 16 8 7 8 11 24 19 11 15 12 5 15 20 25 32 38 42 41 44 45 41 34 28 22 19 13 9 12 14 12 11 11 12 14 10 8 11 16 21
20 28 25 35 11 12 12 18 11 15 12 8 18 19 9 10 8 8 8 2 10 6 15 15 5 8 20 27 29 33 40 39 36 37 35 37 32 26 21 16 12 13 12 12 11 11 11 12 10 8 6 8 17 17
29 22 17 14 11 17 6 10 11 12 7 4 9 9 6 9 14 23 7 4 6 14 15 35 29 18 19 28 37 41 39 40 36 32 32 26 23 19 16 14 14 14 14 12 10 8 8 12 12 6 8 8 16 18
29 12 9 11 10 6 3 4 4 8 8 5 3 6 8 9 14 4 5 2 5 8 11 35 35 21 29 31 35 36 34 30 29 25 24 23 19 16 13 10 13 15 16 13 10 7 7 6 11 5 8 12 12 16
6 8 8 7 7 6 6 7 6 6 5 6 5 4 7 11 6 7 8 18 25 22 21 17 16 20 25 30 32 30 29 26 24 21 22 21 15 11 11 13 13 13 12 10 9 8 10 11 9 6 7 9 12 15
8 12 10 17 12 9 8 11 13 10 2 6 6 8 5 3 6 8 8 9 13 15 22 33 33 27 26 30 30 28 27 25 22 17 17 19 18 13 10 11 12 11 10 10 12 13 13 13 10 6 5 5 6 15
6 8 12 11 8 9 7 7 15 9 9 6 6 5 5 5 6 7 3 1 6 8 8 17 22 25 28 29 27 27 25 19 18 16 15 17 15 14 11 9 8 9 12 9 10 13 16 10 12 11 11 6 19 18
4 5 12 22 15 13 6 5 5 2 2 6 8 10 9 1 6 6 4 2 4 10 9 13 24 19 21 26 26 23 19 18 18 15 12 12 11 11 11 6 6 5 8 8 13 13 13 13 13 17 15 23 13 19
2 7 12 12 8 9 9 8 6 6 4 3 2 4 4 6 7 8 8 11 13 14 15 16 16 19 22 21 20 18 19 19 18 19 19 18 16 12 12 8 7 12 13 18 18 10 10 16 22 33 24 20 28 11
8 2 5 8 7 6 6 6 5 6 7 8 7 10 10 10 9 9 11 15 16 17 18 20 20 20 22 22 24 23 20 17 15 15 13 13 11 14 17 13 15 19 23 22 15 11 20 33 30 24 25 27 20 20
5 6 8 7 5 5 8 12 12 11 7 7 9 13 10 6 6 9 10 14 14 16 18 18 18 18 19 19 20 21 18 11 8 7 8 8 12 16 18 18 21 30 31 31 27 26 29 25 27 23 24 24 21 14
4 3 6 5 4 5 6 4 5 7 8 8 9 7 7 6 6 5 9 8 7 10 13 14 13 12 13 12 12 15 16 14 11 8 6 3 11 14 15 23 29 34 35 36 32 28 24 24 26 21 17 18 17 20
6 9 10 10 8 6 5 6 5 6 7 5 5 4 4 2 2 0 2 13 13 8 5 6 8 10 13 13 13 14 19 17 11 4 4 6 10 19 21 25 30 33 34 36 33 28 27 18 14 16 22 21 23 25
Wind_Direction_500mb
271 269 268 268 268 266 260 253 253 256 258 259 265 259 255 254 251 251 257 250 227 260 269 242 228 230 245 237 237 136 177 200 201 239 255 223 253 192 237 223 201 210 204 214 234 248 251 151 163 214 282 305 305 305
271 270 270 267 265 266 266 259 251 252 253 249 253 259 248 248 244 239 253 253 248 246 272 251 242 233 231 242 257 203 333 145 223 234 233 242 218 189 238 237 195 235 222 256 213 272 116 187 248 276 287 289 299 305
284 272 265 264 263 262 265 264 257 247 247 246 247 248 244 244 245 235 227 246 261 271 280 253 260 252 234 231 224 236 220 201 196 197 257 281 250 246 224 236 234 225 209 233 254 229 233 251 260 276 285 287 294 308
276 282 281 269 261 258 257 261 260 252 244 243 243 242 236 238 244 240 230 231 225 258 271 204 269 254 239 225 221 220 231 223 202 196 233 244 250 208 246 334 251 348 164 234 246 266 266 265 262 284 295 295 301 311
273 273 274 279 268 257 253 252 256 254 243 247 243 239 241 231 232 240 231 231 216 228 304 284 292 256 242 231 215 211 214 209 211 208 223 230 253 218 215 276 252 201 232 210 237 230 230 281 285 290 292 306 312 315
271 270 272 274 272 266 255 249 249 250 245 237 244 241 240 231 213 222 245 247 223 214 253 265 281 230 220 198 187 191 197 205 216 227 234 230 213 223 232 251 251 209 217 218 246 224 241 271 283 286 294 307 312 316
271 265 268 263 264 264 266 252 244 246 245 238 240 238 233 230 222 212 200 202 206 199 205 249 221 193 179 164 170 177 189 200 215 214 231 234 200 204 249 245 251 212 208 210 212 221 255 253 286 301 299 307 313 319
266 261 264 254 253 255 264 265 246 241 243 242 238 243 245 240 241 236 227 220 192 177 189 240 202 188 182 185 178 189 191 198 211 229 218 227 172 217 248 236 231 200 195 201 208 221 251 272 287 297 301 314 316 321
261 256 258 248 248 259 259 268 253 236 238 244 241 239 258 237 213 226 242 226 194 184 203 211 198 191 177 189 180 175 197 207 174 226 222 208 209 219 231 228 201 195 194 197 202 208 219 249 282 297 309 317 319 319
254 253 250 242 236 248 253 263 258 228 226 233 220 214 224 221 210 225 183 172 171 203 201 223 218 189 186 179 185 170 192 225 214 212 168 229 244 233 230 213 201 199 201 195 189 200 217 254 276 307 318 321 316 314
250 249 244 233 233 232 245 269 244 198 201 198 213 211 214 203 179 178 157 164 171 211 205 202 207 178 199 186 176 212 185 175 230 174 206 230 247 231 223 209 190 181 189 198 204 196 209 250 290 306 320 329 319 315
244 244 236 229 228 225 237 236 197 190 182 197 218 207 170 211 193 152 179 183 200 209 186 194 189 186 169 174 210 180 206 188 241 143 218 237 226 189 176 188 200 199 188 181 180 185 209 238 262 305 320 323 320 316
235 235 228 224 221 214 235 226 218 197 186 194 207 181 218 196 198 208 186 204 200 194 161 164 161 157 144 174 210 187 199 208 132 200 233 232 154 167 161 157 156 162 166 171 179 195 213 234 274 307 321 321 324 319
227 226 220 216 228 208 224 216 220 197 201 208 179 204 210 189 226 198 229 197 206 195 170 167 151 146 136 180 167 200 197 155 212 214 223 203 177 171 166 163 161 163 168 177 188 205 227 256 287 306 319 324 320 318
221 218 216 215 211 207 205 216 219 198 221 211 199 218 213 215 217 243 252 272 186 175 162 154 124 142 137 150 221 183 183 218 209 215 206 173 169 168 166 167 167 167 173 184 199 215 240 256 286 296 311 319 314 319
209 212 213 211 205 203 206 217 199 198 220 236 218 245 232 234 211 205 226 233 186 168 157 127 124 166 191 204 194 199 198 213 194 205 163 158 162 164 166 167 168 172 182 195 210 226 249 271 290 297 313 315 310 316
197 209 210 197 189 191 200 190 189 216 215 221 233 225 236 269 213 203 189 227 190 177 168 146 169 180 179 210 198 199 195 162 166 150 156 161 161 161 164 164 168 176 188 206 221 240 261 274 294 304 304 296 309 315
200 212 191 179 179 187 194 194 194 211 239 234 244 220 214 223 210 214 213 199 193 195 193 188 152 198 202 202 196 156 166 134 146 147 144 149 154 156 160 164 172 183 202 221 234 254 275 286 299 304 294 296 319 318
203 192 180 185 187 181 173 206 203 248 245 256 238 224 194 216 223 236 197 208 211 211 189 201 217 226 203 202 168 166 161 159 150 145 145 147 151 153 156 162 174 186 210 235 252 272 279 287 295 298 290 305 313 321
172 177 186 188 183 180 184 185 184 241 255 228 228 204 203 214 205 204 192 245 210 186 206 233 231 227 215 165 165 160 153 151 146 141 143 147 150 151 157 170 189 196 221 253 271 274 279 284 289 285 290 304 320 321
166 178 186 188 191 233 203 196 195 217 235 243 206 195 213 191 185 198 165 264 186 178 204 235 276 233 151 139 147 145 146 150 155 157 156 153 157 161 166 180 185 223 257 265 262 270 288 280 282 266 291 312 331 337
174 173 170 189 186 205 256 211 222 187 221 236 182 188 195 198 165 187 162 251 180 230 188 207 176 134 130 129 133 140 142 141 144 145 150 153 159 172 183 195 211 230 249 258 260 274 282 272 264 265 288 312 333 350
161 169 160 196 187 190 243 206 223 201 229 153 147 146 184 163 196 143 200 167 163 190 178 180 174 125 153 144 139 130 134 136 142 148 153 162 170 181 190 202 222 238 251 252 244 266 275 257 266 228 270 313 336 335
168 170 185 184 198 192 207 233 251 234 223 138 254 181 167 147 143 144 112 165 150 147 107 145 172 160 149 153 144 142 146 150 150 154 165 172 181 193 202 230 240 243 240 235 247 255 252 240 233 244 268 308 316 316
173 198 186 196 193 172 209 193 208 258 217 164 162 279 140 150 137 163 173 169 173 186 182 173 183 172 171 173 165 160 161 165 170 171 177 177 180 185 215 224 233 229 228 237 244 245 238 216 211 226 273 304 310 312
236 188 209 196 179 210 197 174 190 209 210 221 178 133 129 159 162 136 143 126 142 166 184 190 189 188 194 190 181 176 178 169 166 175 182 188 191 206 222 227 242 242 249 242 247 236 211 202 200 217 200 338 89 119
226 164 183 198 200 196 214 140 135 158 184 226 163 157 148 164 169 98 82 112 134 130 150 174 183 182 176 170 161 158 161 169 165 165 170 184 199 213 224 243 257 258 263 244 206 202 196 197 203 187 192 164 135 105
281 174 172 167 173 196 193 148 119 103 129 236 210 178 180 96 70 70 63 56 145 164 155 170 172 164 159 164 168 168 165 167 180 175 164 168 178 178 174 172 198 232 158 150 160 158 185 205 191 182 185 160 141 129
176 137 135 136 129 70 29 10 46 66 350 5 87 82 71 58 105 79 73 79 82 103 116 125 136 147 156 154 157 157 158 159 164 169 176 167 169 174 171 171 167 151 150 166 171 180 187 176 156 128 110 130 133 123
113 7 116 68 46 56 34 20 65 64 67 86 80 97 86 97 87 93 82 84 92 97 100 106 111 126 133 144 143 142 146 146 150 169 187 193 197 204 201 193 168 160 155 148 141 146 152 140 129 129 129 137 133 125
48 72 72 62 74 62 73 94 87 78 82 60 57 104 101 111 112 113 115 104 82 83 92 94 100 108 121 131 140 148 147 142 165 194 209 229 232 222 220 209 194 170 160 149 130 129 152 130 129 127 135 139 139 132
46 15 113 104 112 122 115 83 66 60 43 59 51 77 103 124 139 158 197 150 109 90 107 93 97 109 127 130 132 152 141 138 130 110 47 243 215 214 221 198 180 164 160 160 150 131 120 120 127 131 146 151 140 140
102 85 104 116 144 156 103 91 67 74 50 62 62 50 63 71 158 68 256 202 190 172 148 172 161 156 153 150 149 155 161 152 151 87 54 115 145 157 155 152 151 156 160 168 173 175 177 179 160 144 150 147 142 139
Wind_Speed_850mb
34 34 33 33 33 34 37 40 40 41 36 30 31 31 28 27 22 16 15 14 9 11 16 11 11 12 8 13 13 13 12 12 13 13 10 10 10 8 8 3 8 13 8 9 9 9 14 20 18 9 12 30 34 31
37 37 36 35 35 34 34 35 41 40 37 33 33 27 28 29 26 21 11 18 16 14 12 14 16 24 23 13 9 14 4 3 7 8 5 4 8 6 9 6 8 10 11 4 12 5 10 28 17 19 26 32 32 31
37 38 39 39 37 36 34 33 35 41 38 36 36 31 29 31 30 27 17 18 13 15 27 26 24 24 39 35 25 14 14 7 6 7 3 3 11 5 8 12 9 11 12 9 4 10 23 21 22 26 25 26 26 31
35 34 37 40 41 38 37 35 34 36 38 35 36 33 33 33 33 31 29 17 16 9 11 6 13 10 17 35 42 30 9 11 10 9 14 9 10 8 5 6 13 6 20 15 20 28 24 20 14 18 19 20 27 31
39 39 38 38 39 41 39 38 35 34 38 37 38 33 33 40 36 35 35 35 28 15 8 9 16 18 21 19 28 32 25 16 16 14 14 12 5 8 7 8 17 23 18 14 9 3 9 10 10 13 18 25 27 32
39 38 37 37 34 38 39 39 38 35 37 41 38 38 35 34 38 36 27 43 43 39 10 6 4 9 15 16 25 27 25 19 21 18 16 10 7 10 8 10 12 22 22 24 7 8 10 11 15 15 17 23 26 31
37 36 35 31 32 35 37 39 39 36 35 40 40 40 41 38 40 45 13 15 34 46 10 9 10 8 18 23 20 22 20 16 17 14 16 17 15 16 10 18 10 25 26 23 18 11 14 12 12 12 17 20 24 31
36 35 33 32 32 34 35 40 37 37 35 37 44 35 34 37 34 45 61 21 20 29 16 7 5 12 28 20 20 19 20 18 15 15 7 19 12 18 11 28 21 21 25 25 22 19 16 11 12 13 17 22 29 35
36 36 34 32 30 31 36 38 35 35 31 28 29 29 29 30 30 37 38 58 42 21 12 12 12 9 27 26 15 18 20 12 8 15 17 14 13 13 23 24 30 33 26 22 21 16 13 12 12 14 22 27 29 33
34 34 33 31 32 29 31 33 31 28 24 21 19 14 11 16 34 30 30 37 23 15 15 14 25 10 31 31 26 19 16 12 8 14 15 11 18 36 28 22 26 30 32 24 21 16 14 12 11 18 22 26 29 31
35 35 33 34 34 28 28 36 20 21 19 16 15 17 14 21 35 20 15 13 15 10 20 28 44 14 18 23 16 18 9 11 8 11 11 8 8 32 45 45 33 27 26 26 19 13 10 8 11 14 20 27 28 25
34 32 33 34 34 32 21 19 23 25 18 20 14 9 30 16 9 7 9 11 13 14 23 41 48 35 21 19 16 16 9 9 10 23 9 7 10 15 26 38 44 35 32 26 21 15 11 9 8 12 20 27 24 22
34 31 33 32 32 33 19 27 30 34 26 17 12 9 12 10 8 10 14 9 11 14 26 49 35 27 15 16 10 10 14 12 17 9 7 9 18 34 38 39 38 34 31 26 21 16 13 10 10 15 20 23 26 21
35 32 30 31 33 29 18 29 25 39 26 11 15 13 10 9 11 12 13 6 13 22 46 53 37 15 12 13 7 8 6 10 10 10 11 11 31 44 43 40 40 35 30 25 20 16 13 12 12 16 24 29 25 20
34 33 33 33 33 31 24 26 29 38 13 16 10 11 17 17 14 9 16 10 15 26 50 48 20 6 14 8 10 8 13 12 13 9 9 24 45 50 46 42 36 32 28 24 20 16 14 14 15 18 23 28 26 25
30 31 36 35 35 32 25 22 42 33 12 8 14 9 13 9 19 18 16 22 15 38 48 20 11 9 9 8 17 18 12 12 7 14 17 32 48 50 46 39 32 28 26 21 18 15 14 14 16 19 29 26 22 23
30 33 33 32 35 26 24 26 30 17 14 12 14 26 16 7 8 14 17 17 28 49 13 11 15 16 12 12 16 16 11 7 14 21 24 36 49 47 40 34 30 27 24 20 17 14 13 14 17 21 21 19 21 22
39 34 26 36 35 28 24 36 19 14 15 20 14 22 27 15 9 12 18 24 31 36 20 6 6 14 13 20 26 13 19 22 24 28 33 42 43 40 36 30 25 22 19 18 16 15 17 20 23 24 16 16 20 21
32 25 39 40 41 24 24 16 11 7 14 12 20 13 21 13 17 13 18 14 40 35 7 8 8 11 12 7 22 34 38 37 39 36 38 38 39 37 31 24 20 16 14 15 16 16 16 18 17 14 13 14 19 22
33 30 36 33 42 16 10 10 15 10 8 11 16 19 12 15 19 10 13 25 38 17 9 6 9 5 6 12 28 38 37 41 48 46 42 38 34 31 26 21 16 12 11 12 14 11 10 11 12 11 10 16 18 23
32 28 31 32 35 16 11 12 15 13 8 12 21 26 17 16 8 7 8 11 24 19 11 15 12 5 15 20 25 32 38 42 41 44 45 41 34 28 22 19 13 9 12 14 12 11 11 12 14 10 8 11 16 21
20 28 25 35 11 12 12 18 11 15 12 8 18 19 9 10 8 8 8 2 10 6 15 15 5 8 20 27 29 33 40 39 36 37 35 37 32 26 21 16 12 13 12 12 11 11 11 12 10 8 6 8 17 17
29 22 17 14 11 17 6 10 11 12 7 4 9 9 6 9 14 23 7 4 6 14 15 35 29 18 19 28 37 41 39 40 36 32 32 26 23 19 16 14 14 14 14 12 10 8 8 12 12 6 8 8 16 18
29 12 9 11 10 6 3 4 4 8 8 5 3 6 8 9 14 4 5 2 5 8 11 35 35 21 29 31 35 36 34 30 29 25 24 23 19 16 13 10 13 15 16 13 10 7 7 6 11 5 8 12 12 16
6 8 8 7 7 6 6 7 6 6 5 6 5 4 7 11 6 7 8 18 25 22 21 17 16 20 25 30 32 30 29 26 24 21 22 21 15 11 11 13 13 13 12 10 9 8 10 11 9 6 7 9 12 15
8 12 10 17 12 9 8 11 13 10 2 6 6 8 5 3 6 8 8 9 13 15 22 33 33 27 26 30 30 28 27 25 22 17 17 19 18 13 10 11 12 11 10 10 12 13 13 13 10 6 5 5 6 15
6 8 12 11 8 9 7 7 15 9 9 6 6 5 5 5 6 7 3 1 6 8 8 17 22 25 28 29 27 27 25 19 18 16 15 17 15 14 11 9 8 9 12 9 10 13 16 10 12 11 11 6 19 18
4 5 12 22 15 13 6 5 5 2 2 6 8 10 9 1 6 6 4 2 4 10 9 13 24 19 21 26 26 23 19 18 18 15 12 12 11 11 11 6 6 5 8 8 13 13 13 13 13 17 15 23 13 19
2 7 12 12 8 9 9 8 6 6 4 3 2 4 4 6 7 8 8 11 13 14 15 16 16 19 22 21 20 18 19 19 18 19 19 18 16 12 12 8 7 12 13 18 18 10 10 16 22 33 24 20 28 11
8 2 5 8 7 6 6 6 5 6 7 8 7 10 10 10 9 9 11 15 16 17 18 20 20 20 22 22 24 23 20 17 15 15 13 13 11 14 17 13 15 19 23 22 15 11 20 33 30 24 25 27 20 20
5 6 8 7 5 5 8 12 12 11 7 7 9 13 10 6 6 9 10 14 14 16 18 18 18 18 19 19 20 21 18 11 8 7 8 8 12 16 18 18 21 30 31 31 27 26 29 25 27 23 24 24 21 14
4 3 6 5 4 5 6 4 5 7 8 8 9 7 7 6 6 5 9 8 7 10 13 14 13 12 13 12 12 15 16 14 11 8 6 3 11 14 15 23 29 34 35 36 32 28 24 24 26 21 17 18 17 20
6 9 10 10 8 6 5 6 5 6 7 5 5 4 4 2 2 0 2 13 13 8 5 6 8 10 13 13 13 14 19 17 11 4 4 6 10 19 21 25 30 33 34 36 33 28 27 18 14 16 22 21 23 25
Wind_Direction_850mb
271 269 268 268 268 266 260 253 253 256 258 259 265 259 255 254 251 251 257 250 227 260 269 242 228 230 245 237 237 136 177 200 201 239 255 223 253 192 237 223 201 210 204 214 234 248 251 151 163 214 282 305 305 305
271 270 270 267 265 266 266 259 251 252 253 249 253 259 248 248 244 239 253 253 248 246 272 251 242 233 231 242 257 203 333 145 223 234 233 242 218 189 238 237 195 235 222 256 213 272 116 187 248 276 287 289 299 305
284 272 265 264 263 262 265 264 257 247 247 246 247 248 244 244 245 235 227 246 261 271 280 253 260 252 234 231 224 236 220 201 196 197 257 281 250 246 224 236 234 225 209 233 254 229 233 251 260 276 285 287 294 308
276 282 281 269 261 258 257 261 260 252 244 243 243 242 236 238 244 240 230 231 225 258 271 204 269 254 239 225 221 220 231 223 202 196 233 244 250 208 246 334 251 348 164 234 246 266 266 265 262 284 295 295 301 311
273 273 274 279 268 257 253 252 256 254 243 247 243 239 241 231 232 240 231 231 216 228 304 284 292 256 242 231 215 211 214 209 211 208 223 230 253 218 215 276 252 201 232 210 237 230 230 281 285 290 292 306 312 315
271 270 272 274 272 266 255 249 249 250 245 237 244 241 240 231 213 222 245 247 223 214 253 265 281 230 220 198 187 191 197 205 216 227 234 230 213 223 232 251 251 209 217 218 246 224 241 271 283 286 294 307 312 316
271 265 268 263 264 264 266 252 244 246 245 238 240 238 233 230 222 212 200 202 206 199 205 249 221 193 179 164 170 177 189 200 215 214 231 234 200 204 249 245 251 212 208 210 212 221 255 253 286 301 299 307 313 319
266 261 264 254 253 255 264 265 246 241 243 242 238 243 245 240 241 236 227 220 192 177 189 240 202 188 182 185 178 189 191 198 211 229 218 227 172 217 248 236 231 200 195 201 208 221 251 272 287 297 301 314 316 321
261 256 258 248 248 259 259 268 253 236 238 244 241 239 258 237 213 226 242 226 194 184 203 211 198 191 177 189 180 175 197 207 174 226 222 208 209 219 231 228 201 195 194 197 202 208 219 249 282 297 309 317 319 319
254 253 250 242 236 248 253 263 258 228 226 233 220 214 224 221 210 225 183 172 171 203 201 223 218 189 186 179 185 170 192 225 214 212 168 229 244 233 230 213 201 199 201 195 189 200 217 254 276 307 318 321 316 314
250 249 244 233 233 232 245 269 244 198 201 198 213 211 214 203 179 178 157 164 171 211 205 202 207 178 199 186 176 212 185 175 230 174 206 230 247 231 223 209 190 181 189 198 204 196 209 250 290 306 320 329 319 315
244 244 236 229 228 225 237 236 197 190 182 197 218 207 170 211 193 152 179 183 200 209 186 194 189 186 169 174 210 180 206 188 241 143 218 237 226 189 176 188 200 199 188 181 180 185 209 238 262 305 320 323 320 316
235 235 228 224 221 214 235 226 218 197 186 194 207 181 218 196 198 208 186 204 200 194 161 164 161 157 144 174 210 187 199 208 132 200 233 232 154 167 161 157 156 162 166 171 179 195 213 234 274 307 321 321 324 319
227 226 220 216 228 208 224 216 220 197 201 208 179 204 210 189 226 198 229 197 206 195 170 167 151 146 136 180 167 200 197 155 212 214 223 203 177 171 166 163 161 163 168 177 188 205 227 256 287 306 319 324 320 318
221 218 216 215 211 207 205 216 219 198 221 211 199 218 213 215 217 243 252 272 186 175 162 154 124 142 137 150 221 183 183 218 209 215 206 173 169 168 166 167 167 167 173 184 199 215 240 256 286 296 311 319 314 319
209 212 213 211 205 203 206 217 199 198 220 236 218 245 232 234 211 205 226 233 186 168 157 127 124 166 191 204 194 199 198 213 194 205 163 158 162 164 166 167 168 172 182 195 210 226 249 271 290 297 313 315 310 316
197 209 210 197 189 191 200 190 189 216 215 221 233 225 236 269 213 203 189 227 190 177 168 146 169 180 179 210 198 199 195 162 166 150 156 161 161 161 164 164 168 176 188 206 221 240 261 274 294 304 304 296 309 315
200 212 191 179 179 187 194 194 194 211 239 234 244 220 214 223 210 214 213 199 193 195 193 188 152 198 202 202 196 156 166 134 146 147 144 149 154 156 160 164 172 183 202 221 234 254 275 286 299 304 294 296 319 318
203 192 180 185 187 181 173 206 203 248 245 256 238 224 194 216 223 236 197 208 211 211 189 201 217 226 203 202 168 166 161 159 150 145 145 147 151 153 156 162 174 186 210 235 252 272 279 287 295 298 290 305 313 321
172 177 186 188 183 180 184 185 184 241 255 228 228 204 203 214 205 204 192 245 210 186 206 233 231 227 215 165 165 160 153 151 146 141 143 147 150 151 157 170 189 196 221 253 271 274 279 284 289 285 290 304 320 321
166 178 186 188 191 233 203 196 195 217 235 243 206 195 213 191 185 198 165 264 186 178 204 235 276 233 151 139 147 145 146 150 155 157 156 153 157 161 166 180 185 223 257 265 262 270 288 280 282 266 291 312 331 337
174 173 170 189 186 205 256 211 222 187 221 236 182 188 195 198 165 187 162 251 180 230 188 207 176 134 130 129 133 140 142 141 144 145 150 153 159 172 183 195 211 230 249 258 260 274 282 272 264 265 288 312 333 350
161 169 160 196 187 190 243 206 223 201 229 153 147 146 184 163 196 143 200 167 163 190 178 180 174 125 153 144 139 130 134 136 142 148 153 162 170 181 190 202 222 238 251 252 244 266 275 257 266 228 270 313 336 335
168 170 185 184 198 192 207 233 251 234 223 138 254 181 167 147 143 144 112 165 150 147 107 145 172 160 149 153 144 142 146 150 150 154 165 172 181 193 202 230 240 243 240 235 247 255 252 240 233 244 268 308 316 316
173 198 186 196 193 172 209 193 208 258 217 164 162 279 140 150 137 163 173 169 173 186 182 173 183 172 171 173 165 160 161 165 170 171 177 177 180 185 215 224 233 229 228 237 244 245 238 216 211 226 273 304 310 312
236 188 209 196 179 210 197 174 190 209 210 221 178 133 129 159 162 136 143 126 142 166 184 190 189 188 194 190 181 176 178 169 166 175 182 188 191 206 222 227 242 242 249 242 247 236 211 202 200 217 200 338 89 119
226 164 183 198 200 196 214 140 135 158 184 226 163 157 148 164 169 98 82 112 134 130 150 174 183 182 176 170 161 158 161 169 165 165 170 184 199 213 224 243 257 258 263 244 206 202 196 197 203 187 192 164 135 105
281 174 172 167 173 196 193 148 119 103 129 236 210 178 180 96 70 70 63 56 145 164 155 170 172 164 159 164 168 168 165 167 180 175 164 168 178 178 174 172 198 232 158 150 160 158 185 205 191 182 185 160 141 129
176 137 135 136 129 70 29 10 46 66 350 5 87 82 71 58 105 79 73 79 82 103 116 125 136 147 156 154 157 157 158 159 164 169 176 167 169 174 171 171 167 151 150 166 171 180 187 176 156 128 110 130 133 123
113 7 116 68 46 56 34 20 65 64 67 86 80 97 86 97 87 93 82 84 92 97 100 106 111 126 133 144 143 142 146 146 150 169 187 193 197 204 201 193 168 160 155 148 141 146 152 140 129 129 129 137 133 125
48 72 72 62 74 62 73 94 87 78 82 60 57 104 101 111 112 113 115 104 82 83 92 94 100 108 121 131 140 148 147 142 165 194 209 229 232 222 220 209 194 170 160 149 130 129 152 130 129 127 135 139 139 132
46 15 113 104 112 122 115 83 66 60 43 59 51 77 103 124 139 158 197 150 109 90 107 93 97 109 127 130 132 152 141 138 130 110 47 243 215 214 221 198 180 164 160 160 150 131 120 120 127 131 146 151 140 140
102 85 104 116 144 156 103 91 67 74 50 62 62 50 63 71 158 68 256 202 190 172 148 172 161 156 153 150 149 155 161 152 151 87 54 115 145 157 155 152 151 156 160 168 173 175 177 179 160 144 150 147 142 139